Location: Sungai Anya
(2.6167°N, 114.0500°E)
Time: 19:41:49
(UTC+00:00)

Lacrosse 5 - Pass Details

Date: 19 October 2021
Orbit: 714 x 724 km, 57.0° (Epoch: 28 August)

Event Time Altitude Azimuth Distance (km) Brightness Sun altitude
Rises 11:32:45 0° 181° (S) 3,128 5.3 -21.1°
Reaches altitude 10° 11:35:50 10° 163° (SSE) 2,207 4.3 -21.9°
Enters shadow 11:36:54 14° 152° (SSE) 1,967 3.9 -22.2°
